Wind_Speed
24 23 21 20 20 19 20 22 25 27 27 27 27 28 29 30 33 38 47 51 50 47 47 46 42 38 40 44 44 39 36 35 34 33 32 30 29 29 31 33 32 30 28 26 23 22 22 22 23 23 24 23 22 20 18 18 19 21 24 25 26 28 25 17 15 18 19 20 23 25 28 30 31 32 34 36 37 40 43 44 45 46 48 49 50
23 23 20 20 19 18 18 19 22 24 24 24 24 26 28 29 31 34 42 50 52 50 48 48 45 41 39 41 45 44 40 39 38 37 36 34 30 28 28 32 34 31 27 25 24 23 22 22 22 23 24 25 24 22 21 19 18 19 21 21 20 19 15 13 15 18 20 24 27 29 30 32 33 33 35 36 38 42 44 44 45 47 48 49 51
23 24 21 21 20 18 17 17 19 21 22 23 22 23 26 27 29 31 37 46 51 50 49 49 48 45 41 39 43 45 42 40 40 39 39 37 34 30 27 28 32 32 29 27 27 26 25 24 24 24 23 24 24 23 23 23 21 22 23 22 19 16 14 13 14 16 21 26 29 31 32 34 34 34 35 36 39 42 44 45 45 46 48 49 51
24 24 22 22 22 19 17 16 17 19 21 22 22 23 24 25 27 29 33 41 48 49 48 50 50 48 45 40 40 44 44 41 40 40 39 39 38 35 30 27 29 30 29 28 28 28 27 25 26 26 25 23 23 22 23 23 22 22 24 24 23 20 18 16 15 18 22 25 28 31 34 35 35 35 36 36 39 42 43 45 45 46 48 49 51
26 24 24 24 23 21 19 18 17 18 20 22 23 23 24 24 24 26 29 36 44 47 48 50 52 50 48 44 41 42 45 43 41 40 39 39 40 39 35 31 29 29 27 26 26 27 27 27 28 28 27 24 23 22 23 23 22 22 23 25 26 23 21 21 19 20 23 25 27 30 34 37 37 36 36 37 40 42 44 45 46 46 48 49 51
30 27 25 24 24 22 21 21 19 18 19 21 23 24 24 23 23 24 26 32 40 46 48 50 52 53 51 49 45 42 44 45 44 41 39 39 40 40 37 34 32 31 29 27 26 27 28 29 29 29 28 26 23 22 22 23 23 22 22 24 26 26 25 25 22 21 25 28 31 34 37 38 37 37 37 38 40 42 44 46 46 47 48 49 52
32 29 26 25 24 22 22 24 22 19 19 20 22 23 23 23 22 22 24 28 35 43 47 49 51 53 54 52 50 48 46 45 45 44 40 39 40 40 38 36 35 35 33 30 28 28 29 29 29 30 30 27 24 22 22 22 24 24 23 24 25 27 27 28 26 25 28 31 35 38 39 39 39 38 39 39 40 42 44 46 47 48 48 50 52
34 31 28 27 27 25 25 26 24 21 20 20 20 21 21 21 20 21 22 25 30 39 45 49 50 52 54 55 55 53 51 47 45 45 42 40 41 41 40 38 38 37 36 33 30 29 30 29 29 31 31 28 25 24 23 23 24 25 25 25 25 27 28 28 29 30 31 34 37 39 40 40 40 40 40 40 41 43 45 47 48 48 49 51 53
37 34 31 31 31 29 28 27 25 23 23 22 21 20 20 20 19 20 21 23 26 33 40 47 49 50 51 54 56 56 55 52 49 46 45 43 42 43 43 42 40 39 37 36 33 31 31 31 30 31 31 30 28 26 25 24 25 26 26 26 27 29 29 29 31 33 33 35 37 39 40 41 41 40 41 41 43 45 46 47 48 49 50 52 54
39 36 34 34 33 32 31 29 26 25 25 25 23 21 20 19 19 19 20 21 24 27 33 41 47 48 48 50 53 55 55 54 52 50 49 47 45 45 45 45 43 41 39 37 36 34 33 32 32 32 32 31 29 28 27 26 26 27 27 27 29 31 32 32 33 34 34 36 37 39 41 41 41 41 43 45 46 46 47 47 49 50 51 53 54
41 39 37 36 36 36 35 32 28 27 27 25 25 25 22 20 20 19 19 20 22 25 28 35 42 46 47 47 49 51 53 53 53 53 52 51 50 47 47 47 46 45 43 39 38 37 35 34 34 34 33 33 32 30 28 28 28 28 29 30 31 33 34 33 34 36 36 37 39 41 43 42 41 43 45 47 47 47 47 48 49 51 53 54 54
44 42 39 37 39 40 39 35 32 32 30 26 28 29 27 25 22 20 20 20 22 24 27 30 35 42 47 48 47 48 49 50 51 52 53 54 54 51 49 49 48 47 46 44 40 38 37 35 35 35 35 35 35 33 31 30 31 31 31 31 33 35 34 33 35 37 39 40 41 43 44 43 44 46 48 48 47 47 48 48 50 52 53 54 55
46 46 44 41 41 43 42 40 38 37 33 29 30 31 31 31 27 23 22 21 22 24 26 28 32 37 43 47 49 49 49 49 49 49 52 55 56 55 51 50 51 50 48 47 44 41 39 37 36 36 35 34 34 34 32 32 33 34 34 34 35 37 36 35 37 38 39 41 42 43 44 44 46 48 48 47 47 47 48 49 51 53 54 54 55
49 49 48 46 45 45 45 43 42 40 36 33 33 32 33 33 30 27 25 23 23 24 25 28 30 33 37 41 46 49 51 51 50 49 51 53 56 55 52 51 51 50 48 47 46 44 42 41 40 41 40 38 37 36 35 34 34 35 36 37 38 40 39 38 39 40 41 42 43 44 45 46 47 48 48 47 48 48 49 50 52 54 54 54 55
52 52 51 50 48 49 47 45 45 43 39 36 36 35 36 36 33 31 29 26 26 26 27 29 29 29 32 37 41 45 48 50 51 51 51 52 54 54 53 51 49 48 47 47 47 46 45 44 44 45 46 45 42 41 39 38 36 35 36 37 39 41 41 40 40 42 42 42 43 44 44 46 47 48 48 48 49 49 50 51 53 54 53 54 55
54 55 55 53 50 50 50 48 47 47 44 40 39 39 38 38 37 35 33 31 30 30 31 31 29 28 30 34 37 41 45 48 50 50 49 50 51 53 52 52 50 49 47 47 47 47 47 46 45 45 45 45 43 42 42 41 40 39 38 38 39 40 40 41 42 44 44 43 43 44 44 46 48 49 49 49 49 50 51 53 54 53 53 54 54
56 56 58 58 55 50 51 52 51 50 49 47 44 43 41 41 41 40 38 36 34 34 34 33 32 31 31 32 34 39 43 45 47 48 48 48 49 51 52 52 53 52 51 50 49 48 48 48 47 46 45 44 44 43 42 42 42 41 42 42 41 40 40 42 44 45 45 44 44 45 46 48 50 50 49 49 51 53 53 53 54 53 54 55 53
58 58 58 60 60 56 51 52 54 53 52 51 49 47 45 44 43 42 42 41 39 38 37 35 35 35 35 35 35 37 39 40 43 46 47 48 49 50 50 51 52 52 53 53 52 51 50 50 49 48 47 46 45 43 43 43 43 42 43 44 44 43 43 43 43 44 45 46 47 48 48 49 49 48 48 50 54 55 54 54 54 54 55 55 53
60 61 60 60 62 62 57 53 54 56 55 53 52 52 51 50 47 44 44 44 43 41 39 39 40 41 40 39 38 37 36 37 40 42 44 46 47 47 48 49 49 50 51 53 53 52 52 51 51 50 49 47 45 45 44 44 44 43 43 44 44 44 44 44 44 44 45 46 47 47 46 47 47 47 50 54 56 55 54 54 54 55 55 54 53
60 62 63 62 61 63 64 59 55 56 57 56 55 54 54 54 53 50 48 47 45 43 43 44 46 48 46 42 40 39 36 35 36 37 39 42 43 44 46 46 46 47 48 50 50 50 51 50 50 49 48 47 45 45 45 45 45 44 44 44 43 43 43 44 44 45 45 45 45 44 45 47 49 51 54 56 55 54 55 56 55 55 55 53 52
61 63 65 65 63 63 65 65 61 57 58 59 58 57 56 55 54 54 53 51 50 47 45 47 50 53 50 45 44 43 40 37 36 35 35 37 38 40 42 42 43 44 46 47 47 48 48 47 47 47 47 46 46 46 46 46 46 46 46 45 44 44 44 44 45 45 46 46 46 47 49 50 51 52 54 54 54 55 56 57 56 56 54 53 52
63 64 65 67 67 65 65 66 66 62 60 60 60 60 59 58 57 56 55 54 54 52 50 50 52 53 51 47 47 47 44 41 38 36 36 35 35 35 37 38 39 41 42 44 45 45 46 45 45 45 46 46 46 46 47 47 47 47 46 46 45 45 45 45 46 47 47 47 47 49 50 50 50 52 54 54 55 56 58 57 56 56 54 52 51
64 64 66 67 69 69 67 67 68 67 65 62 61 61 62 62 60 59 58 56 56 56 55 54 54 53 51 50 51 51 49 45 41 38 37 36 35 35 35 36 37 38 39 41 42 43 44 44 45 45 45 46 46 47 47 46 46 47 47 46 46 46 46 46 47 48 48 48 48 49 50 50 51 53 54 55 56 58 58 57 56 54 52 52 51
65 66 67 68 69 71 71 70 70 70 69 67 64 62 64 65 63 61 61 59 58 58 58 57 56 56 55 53 53 53 52 50 45 41 38 38 37 35 34 35 35 37 38 39 40 42 43 43 43 44 45 46 46 47 47 47 47 47 46 46 47 47 46 47 47 48 48 48 48 49 50 50 52 54 55 56 57 58 58 57 55 52 52 52 51
65 66 67 69 70 72 73 73 73 72 72 71 69 66 65 66 66 64 63 62 61 60 61 61 60 60 59 56 54 54 55 54 48 44 42 41 39 37 36 35 34 36 37 38 39 40 41 41 42 43 44 45 45 46 46 47 48 47 47 47 47 47 47 48 48 49 49 49 49 50 50 51 53 55 56 57 58 58 57 55 53 51 51 51 50
66 67 68 69 71 72 74 75 75 75 75 75 74 72 69 68 68 68 66 65 63 62 63 64 64 64 61 58 56 56 57 57 53 48 47 46 44 42 41 38 36 37 38 38 39 38 38 39 40 40 42 43 44 44 46 47 48 49 49 48 47 47 48 49 50 51 51 50 50 51 52 53 54 56 57 57 57 57 55 53 51 50 51 51 51
67 68 69 70 72 73 75 76 77 78 78 78 78 77 75 72 71 71 70 68 67 65 66 67 66 65 62 59 60 59 58 59 57 54 52 50 48 47 45 42 40 41 40 38 38 37 38 38 37 37 38 40 41 42 44 45 47 48 49 49 49 49 50 51 52 53 52 52 51 52 53 55 56 56 55 55 55 54 52 50 50 50 50 50 52
69 69 70 71 72 74 75 77 78 79 80 80 80 81 80 78 75 75 75 74 72 71 71 70 68 67 65 61 61 62 62 62 61 59 58 56 53 51 48 46 45 44 42 39 38 37 36 36 35 35 34 35 37 38 39 41 42 44 46 48 48 49 50 52 52 52 52 52 52 53 54 54 53 53 52 52 52 51 49 49 49 49 50 51 53
72 72 72 72 73 75 76 77 78 80 81 82 82 82 83 82 80 78 78 79 78 76 76 75 72 70 69 66 64 64 66 67 66 64 63 60 57 55 51 49 48 47 44 42 40 38 36 35 34 33 33 33 34 34 35 37 38 39 41 44 45 47 48 50 50 50 49 50 50 50 50 49 49 49 50 50 48 47 47 48 48 49 51 53 55
73 75 75 75 75 76 77 78 79 80 81 82 83 84 84 85 85 83 81 82 82 81 80 80 79 76 74 72 70 67 67 69 69 69 67 64 62 59 56 54 51 49 48 45 44 41 38 37 37 35 35 34 34 34 35 35 36 37 38 40 41 43 44 45 45 45 45 46 46 46 45 46 47 47 47 46 45 45 47 49 49 50 52 55 57
73 75 77 78 78 78 79 80 80 81 82 83 84 85 85 86 86 87 85 84 85 85 84 83 83 82 80 78 74 71 68 68 70 71 70 67 65 63 61 59 55 51 50 48 48 46 43 42 43 41 40 39 36 36 36 36 36 36 37 38 38 40 40 40 40 41 42 43 43 43 43 44 45 44 44 44 45 46 49 50 51 52 54 57 58
74 75 77 79 80 81 81 82 82 83 83 84 84 85 86 86 87 88 89 88 87 87 87 87 86 85 84 81 78 75 72 70 70 72 71 68 65 65 65 64 59 55 53 51 51 50 49 49 48 47 47 44 41 40 39 37 36 37 37 37 37 37 37 38 39 39 40 41 41 41 42 43 43 43 43 45 47 48 51 52 53 54 55 57 57
74 75 76 78 80 82 83 84 85 85 85 86 86 86 86 87 88 89 90 90 90 89 89 89 89 88 86 84 82 80 77 74 72 73 74 71 67 67 67 66 63 61 58 56 55 55 55 54 52 52 51 48 45 44 42 40 38 38 39 38 37 37 38 39 39 39 39 40 40 41 42 43 43 43 45 47 49 51 52 53 54 54 54 55 55
75 76 77 78 79 80 83 85 86 87 87 87 88 88 88 88 89 89 90 91 92 92 92 91 91 91 90 88 86 84 83 80 76 74 75 73 71 71 69 67 66 66 64 62 61 60 59 58 58 57 54 51 49 48 46 43 40 40 41 40 39 39 39 39 39 39 39 40 41 42 43 43 43 45 47 49 50 51 52 53 53 53 53 54 55
75 76 77 78 79 80 81 82 85 87 88 89 89 89 90 90 91 91 92 92 92 93 94 94 94 94 93 91 89 88 87 84 80 78 76 76 76 75 72 70 69 69 69 67 66 65 63 63 63 62 58 55 54 51 49 47 44 43 44 43 43 43 42 41 40 40 40 41 42 42 42 43 44 46 48 50 50 50 52 52 52 52 53 54 53
76 77 78 79 80 81 81 82 83 85 87 88 89 90 90 91 92 93 93 94 94 94 94 95 96 96 95 94 93 92 91 88 85 82 80 79 78 77 75 73 72 72 72 71 70 69 66 66 67 65 62 60 57 54 52 50 49 47 46 46 46 45 44 43 42 42 42 42 42 42 43 44 46 47 49 49 49 50 51 51 51 52 53 53 53
79 79 80 81 81 82 83 83 84 84 86 87 88 89 90 91 92 93 95 96 96 96 95 96 97 98 97 97 96 96 95 92 89 86 84 83 82 79 77 76 74 73 74 73 72 71 69 69 69 67 65 63 60 57 55 53 52 51 50 49 48 47 46 45 45 45 44 43 43 44 45 46 47 48 49 49 49 50 51 51 51 52 53 53 53
81 82 82 82 83 84 84 85 85 85 86 87 88 89 90 91 92 93 95 96 97 98 98 97 98 98 98 99 98 98 98 95 92 90 89 87 85 82 81 81 77 75 75 75 74 73 70 69 70 69 67 64 62 60 58 56 54 54 53 52 51 50 49 48 47 46 45 44 45 46 46 46 47 49 49 49 49 50 51 51 52 53 53 53 54
84 84 85 85 85 86 86 87 87 87 87 88 88 89 90 91 93 94 95 96 97 98 98 99 99 99 99 99 100 100 99 97 96 95 93 92 90 86 85 85 82 80 78 77 77 75 70 69 71 70 67 66 64 62 60 58 57 56 56 55 54 54 53 51 48 47 47 48 48 48 47 47 49 50 50 50 50 51 51 52 54 54 53 54 56
86 87 87 87 88 88 88 89 89 89 89 89 90 90 91 92 93 94 95 96 97 98 98 99 100 100 100 100 100 100 100 99 99 98 97 96 94 91 89 89 87 84 82 80 79 76 72 71 72 70 68 67 66 64 62 60 59 59 59 58 56 55 54 52 50 49 51 51 51 49 49 49 50 51 51 51 53 53 54 55 56 54 54 57 59
88 89 89 90 90 91 91 91 91 91 91 91 92 93 93 94 94 95 96 97 97 98 98 99 100 100 101 101 101 101 100 100 100 100 99 99 98 96 93 92 91 87 83 82 82 79 75 73 72 71 69 68 68 67 65 63 63 62 61 59 57 56 55 54 53 53 54 53 52 52 51 51 52 53 53 53 55 56 57 58 57 55 56 59 60
90 91 91 92 92 93 93 93 92 92 92 93 94 96 96 96 96 97 97 98 98 98 99 99 100 100 100 101 101 101 101 101 101 101 101 101 100 99 97 96 94 90 86 84 84 81 77 74 72 71 70 70 70 69 68 67 66 63 61 59 58 58 58 57 57 57 56 56 55 54 54 54 55 55 54 55 57 58 59 58 57 56 58 60 61
92 92 92 93 94 94 94 94 94 94 94 94 96 98 99 99 99 99 100 100 99 99 99 100 100 100 100 101 101 102 102 101 101 101 102 102 101 101 100 99 97 94 90 88 86 83 79 76 75 73 71 71 71 70 70 69 67 65 63 61 61 61 61 60 60 59 60 59 58 56 57 59 58 56 55 57 59 60 59 59 57 57 59 60 61
92 92 92 93 93 94 94 94 95 95 95 95 97 99 100 100 101 101 102 103 102 101 100 100 101 101 101 101 101 102 102 101 101 101 102 101 101 102 102 101 99 96 93 91 89 85 81 79 78 76 74 73 72 72 71 70 69 68 66 65 65 64 64 63 62 62 62 61 59 59 61 62 60 57 57 60 61 61 61 60 58 59 60 61 62
90 90 90 90 90 91 91 92 92 93 93 94 96 97 99 100 101 101 103 104 104 104 103 102 103 103 102 101 102 102 102 102 102 102 102 101 101 102 102 102 100 97 95 93 92 88 85 82 80 78 76 75 74 73 73 72 70 70 69 68 68 67 65 64 64 65 64 62 62 63 63 63 61 59 61 64 63 62 62 61 59 59 61 62 62
84 84 85 85 85 86 87 87 87 88 89 90 92 94 96 97 99 100 100 102 103 104 104 104 104 104 104 103 102 102 102 103 103 102 102 101 101 101 102 103 101 99 97 96 94 92 89 85 82 80 78 77 75 75 74 72 71 71 71 70 69 67 65 66 67 67 66 63 63 64 64 64 63 63 64 65 63 62 63 61 60 61 62 63 62
77 78 78 79 80 80 81 81 81 81 83 86 88 90 91 92 95 96 97 98 100 101 103 104 104 105 105 105 104 103 102 103 104 103 102 101 101 101 102 102 101 100 99 98 96 94 91 86 82 80 79 77 76 74 72 71 72 73 71 69 69 67 66 68 69 68 66 64 64 65 64 64 65 64 64 64 63 63 63 62 61 62 63 63 63
69 70 71 72 73 74 74 73 74 75 78 81 84 85 86 88 90 91 92 93 94 96 97 99 102 104 104 104 104 103 102 102 103 103 103 102 101 101 102 101 100 99 99 98 96 95 91 86 82 80 79 77 76 74 71 71 73 73 69 68 70 69 68 69 70 69 67 67 67 66 64 64 65 64 64 63 63 64 64 63 63 63 64 64 63
61 62 64 65 66 66 66 67 68 70 73 76 78 80 81 83 85 85 86 87 88 89 92 94 97 100 101 102 103 103 102 102 102 103 104 103 102 101 101 100 99 98 98 98 96 95 91 86 82 80 79 77 75 72 71 71 72 70 67 68 70 71 70 69 69 70 70 69 69 67 64 63 64 64 63 64 65 65 65 64 64 64 64 64 65
54 56 57 58 60 59 60 61 62 64 68 71 73 74 76 77 78 78 79 80 82 84 87 90 93 95 97 98 99 100 101 101 101 102 103 104 103 101 100 98 97 97 97 97 95 94 90 85 82 81 78 75 73 72 71 71 70 67 65 66 69 71 71 70 70 70 71 70 69 66 63 62 64 64 64 65 66 66 65 65 65 66 66 66 67
48 51 51 52 53 53 53 55 56 58 61 65 67 68 69 69 70 71 73 75 77 80 83 87 89 90 92 94 95 97 98 99 100 100 101 102 103 101 99 97 96 96 96 95 94 92 89 85 83 81 77 73 73 73 72 71 69 65 64 66 69 71 71 71 71 71 70 69 68 64 62 63 65 65 65 65 66 67 66 66 67 68 68 68 69
Wind_Direction
232 237 242 245 246 243 239 236 236 237 238 239 238 239 239 236 232 225 221 221 222 219 216 216 218 223 226 227 228 231 232 230 230 233 236 241 246 249 250 252 252 253 256 260 265 270 274 278 279 279 277 278 288 300 301 299 307 310 311 315 313 308 309 304 291 296 303 299 297 299 304 310 314 317 319 320 323 328 331 334 336 337 338 339 338
229 234 237 242 245 243 238 235 234 235 236 237 238 239 239 238 236 231 224 222 223 223 221 220 218 221 225 228 228 229 233 235 233 234 236 239 243 249 253 255 254 252 253 257 262 266 270 276 280 282 282 280 281 289 293 294 303 310 316 323 321 319 316 298 294 300 297 294 298 300 303 308 313 315 316 318 323 328 331 334 334 335 337 338 337
222 228 230 236 241 242 240 237 236 236 236 235 236 237 238 238 236 234 229 223 222 224 225 224 220 219 223 227 229 228 231 236 236 236 238 239 240 242 249 255 254 252 252 257 260 262 266 272 279 284 287 286 281 280 286 290 295 301 309 317 317 318 315 305 301 297 293 293 296 300 303 307 312 313 314 317 324 328 330 332 332 334 336 336 335
218 223 229 235 239 243 242 241 240 240 239 237 236 235 236 236 235 234 232 226 222 223 226 226 222 219 222 226 228 229 230 234 238 239 239 240 241 240 243 250 251 251 255 261 262 262 264 270 276 281 286 289 284 279 283 290 294 297 303 308 308 308 309 308 304 297 297 295 294 298 303 307 311 312 313 318 324 328 329 330 331 333 335 335 334
215 220 231 237 239 243 243 244 242 241 240 239 237 235 234 233 234 234 232 228 224 223 226 227 224 221 222 225 228 231 231 232 237 241 242 241 242 243 245 249 249 249 254 260 263 264 266 271 274 277 282 288 288 283 283 288 294 296 299 303 304 304 304 307 305 294 296 299 298 299 303 307 311 312 315 319 323 326 327 328 330 332 333 333 332
214 218 228 235 237 240 242 245 245 240 237 237 236 236 235 233 232 232 232 230 226 226 227 228 227 224 224 226 228 231 233 232 233 239 243 242 243 245 248 251 251 251 254 257 259 261 264 267 271 274 278 283 287 287 284 287 292 294 295 297 300 302 303 307 305 291 290 297 299 300 303 307 310 313 315 318 321 324 326 328 330 330 330 330 330
215 217 223 227 230 233 237 242 243 241 237 234 234 235 237 235 232 231 232 231 228 228 229 230 229 227 227 228 229 232 233 233 233 235 240 243 243 244 247 250 252 253 254 255 257 259 262 265 270 274 276 277 281 285 285 286 291 292 292 291 293 297 299 303 302 294 292 295 297 300 303 306 309 312 314 317 321 322 325 328 329 329 328 328 328
215 215 219 221 222 225 229 236 238 238 237 234 233 233 236 236 234 232 233 232 230 229 229 231 232 231 230 230 232 234 235 236 236 236 239 242 243 242 244 246 249 253 254 255 259 262 264 266 270 272 272 272 275 281 284 286 289 290 290 291 291 292 295 297 299 298 298 298 300 302 303 304 306 309 312 316 320 322 325 327 328 328 327 326 326
215 214 219 221 221 222 224 229 234 237 239 239 237 237 237 238 237 233 232 233 232 230 231 231 233 234 233 232 234 236 237 238 239 240 241 243 244 243 243 244 246 250 253 254 256 259 263 264 265 266 267 268 272 277 281 285 287 287 289 291 290 290 292 293 295 298 300 300 301 302 303 304 305 307 310 313 317 321 324 326 326 325 325 325 325
214 214 219 223 222 221 220 221 226 232 236 240 240 240 240 241 241 238 234 233 233 232 232 232 233 235 236 235 235 237 238 239 240 242 243 244 244 244 244 244 245 247 251 253 252 253 258 261 261 263 264 266 271 274 277 281 283 285 287 288 288 288 289 290 293 296 297 298 300 302 304 304 305 307 310 312 314 317 322 324 324 323 324 324 324
213 215 219 224 224 222 219 217 221 228 231 236 240 240 242 244 246 246 242 238 236 233 232 233 233 234 237 239 239 239 240 240 240 241 243 244 244 244 245 245 246 248 250 253 253 250 253 259 260 261 263 264 269 272 274 276 280 283 285 286 286 286 287 289 292 294 296 297 298 301 303 304 305 306 309 312 312 315 320 322 321 321 322 322 323
213 214 217 221 225 224 220 216 219 226 227 230 235 237 243 248 250 251 250 247 244 239 235 233 234 234 236 239 242 243 243 243 243 242 242 243 243 243 245 247 248 249 250 253 254 252 252 257 260 261 262 265 268 270 270 272 275 280 284 285 286 284 286 289 292 293 294 296 297 298 300 301 303 304 307 311 312 314 318 319 318 319 320 321 322
218 217 216 218 223 226 224 218 217 220 221 225 230 232 239 245 249 251 250 251 253 252 246 239 235 235 235 237 241 244 246 248 248 247 245 244 243 243 245 247 248 250 251 252 254 255 255 258 261 261 263 266 268 269 270 271 274 277 281 284 284 284 287 291 292 293 294 295 296 296 298 299 300 302 306 310 311 313 315 315 315 317 319 320 321
223 221 219 220 223 226 227 223 220 219 216 219 226 229 232 237 243 246 246 249 254 257 258 253 245 240 239 238 240 242 245 249 251 252 250 246 244 244 246 247 247 249 250 252 254 256 257 259 262 263 264 267 270 273 273 274 277 279 280 281 282 284 289 293 293 293 294 294 295 296 297 298 298 300 305 309 310 311 311 311 313 316 318 319 321
226 224 222 223 225 228 229 227 224 222 217 216 221 226 231 233 236 241 243 245 249 253 258 260 257 253 248 243 243 243 245 247 250 251 252 250 247 246 248 247 246 248 250 252 254 256 258 261 263 264 265 268 271 272 272 274 278 281 283 284 284 284 288 291 293 293 293 294 294 295 296 296 297 300 305 307 308 308 308 309 311 315 317 318 320
228 226 224 224 224 225 228 229 226 225 224 220 218 222 229 232 234 239 241 241 244 248 252 254 258 260 258 252 249 247 247 248 249 250 252 252 251 250 250 248 246 248 250 252 254 257 259 262 265 266 267 269 270 270 271 273 275 277 280 285 286 286 287 289 290 291 292 293 293 293 294 295 297 300 303 304 304 306 306 308 311 314 316 317 319
228 228 226 225 225 223 224 226 227 228 228 227 223 220 224 229 232 235 238 239 240 244 248 250 252 256 259 261 257 251 248 249 250 251 252 253 253 252 252 250 250 251 251 253 255 257 259 262 265 268 269 271 272 272 273 273 273 273 276 281 284 286 288 289 289 290 291 292 292 292 293 294 297 299 300 301 302 304 305 307 310 313 315 316 317
227 229 228 227 227 226 223 222 225 227 229 231 229 225 224 227 227 228 231 234 237 241 246 250 254 255 257 258 258 254 250 250 250 250 251 252 252 252 253 253 254 254 254 254 255 256 259 262 265 267 270 272 273 274 275 275 275 275 276 279 282 284 286 288 290 290 290 290 290 291 292 293 295 296 297 299 300 302 304 306 309 312 314 315 316
227 228 229 229 227 228 227 224 222 224 227 229 231 230 230 232 231 229 229 231 233 236 241 249 255 258 256 254 254 254 252 251 251 251 251 251 252 253 253 254 255 256 256 257 257 258 259 261 264 266 268 270 271 273 274 275 276 276 277 279 281 283 285 286 288 289 289 288 289 289 289 290 292 293 295 297 299 301 303 305 309 312 313 313 315
229 228 229 230 229 228 229 228 224 222 223 226 228 230 232 234 235 234 232 232 230 231 239 248 254 256 254 253 252 251 249 249 251 252 252 251 252 253 254 255 255 255 257 258 259 260 261 262 263 264 265 267 268 270 271 273 275 276 278 279 281 282 283 284 285 286 286 286 286 286 286 287 290 292 294 296 298 300 302 306 309 311 312 312 313
231 229 229 230 231 229 229 229 228 223 221 223 225 227 230 231 233 233 233 234 232 231 238 247 250 252 251 250 251 249 246 245 247 250 251 252 253 254 255 256 257 257 257 259 260 262 262 263 263 263 263 265 267 268 270 272 274 275 276 278 279 280 281 282 283 284 284 284 284 284 286 289 292 293 294 296 298 300 303 306 308 309 310 311 312
232 231 230 230 232 232 230 230 230 227 223 222 223 224 227 229 230 231 232 235 236 234 237 241 244 246 246 247 249 249 247 246 244 244 246 250 254 256 259 261 261 261 260 260 260 261 262 263 263 263 263 264 266 268 269 271 272 273 274 276 277 278 279 280 282 283 284 284 284 285 288 291 293 293 294 296 298 300 303 305 307 308 309 310 310
233 232 232 231 232 233 232 231 231 230 227 224 224 223 224 226 229 230 231 233 235 235 236 238 239 239 240 244 247 248 248 247 245 242 241 245 249 255 262 265 267 267 264 262 261 260 261 261 262 263 263 264 266 267 268 270 270 271 272 274 275 276 277 279 280 282 284 285 286 287 289 291 292 293 294 296 298 300 302 304 306 307 308 308 309
235 234 233 232 232 233 233 232 232 232 230 228 226 225 223 224 226 229 230 231 231 232 234 235 235 235 236 240 244 246 247 247 245 243 241 242 245 250 259 265 269 270 266 264 261 259 259 260 261 262 263 264 264 265 267 268 269 270 271 272 273 274 275 277 278 280 281 283 285 286 288 290 291 292 294 296 298 299 301 303 304 305 306 307 308
238 236 234 233 233 233 233 233 233 233 232 231 229 228 226 224 224 226 229 229 228 229 231 233 232 234 236 237 240 245 246 246 245 243 242 243 244 248 253 258 264 268 267 264 263 261 260 260 260 262 263 264 265 266 267 267 268 269 270 271 272 272 273 274 275 276 277 279 282 284 287 288 290 291 293 295 297 298 300 301 302 303 305 306 307
240 239 237 235 234 233 233 234 234 233 233 233 232 231 229 226 225 225 226 225 226 227 230 233 234 235 236 237 239 242 244 247 246 243 242 243 245 247 249 252 257 261 263 263 263 263 262 260 260 261 262 264 265 266 266 267 268 269 270 270 270 270 271 271 272 273 274 276 279 282 285 287 288 290 292 295 296 297 299 300 301 302 304 305 306
241 240 239 238 236 235 234 234 234 234 234 233 233 233 232 230 227 227 226 223 224 226 229 233 236 237 238 238 239 240 241 244 246 245 243 243 244 246 247 250 253 255 256 257 259 262 262 261 260 261 262 264 266 267 268 268 269 270 271 271 269 268 268 268 269 271 274 277 280 282 284 285 287 290 292 294 296 297 298 299 300 302 304 305 305
243 241 240 239 239 237 236 235 234 235 235 234 234 233 233 232 229 228 228 226 224 224 226 230 233 236 238 238 238 239 239 242 245 245 244 243 243 244 246 247 250 251 251 252 254 256 258 258 258 260 263 266 267 269 270 272 272 273 273 272 270 268 267 267 269 271 274 277 279 280 281 284 287 291 293 295 295 297 298 299 301 302 304 304 304
244 243 242 240 239 239 238 237 236 235 235 234 234 234 234 234 232 230 229 230 229 226 225 226 229 231 234 235 236 237 238 240 243 244 245 244 243 243 245 245 247 249 250 250 251 251 251 253 255 258 263 265 267 269 272 273 274 274 273 272 271 270 268 268 269 271 273 275 277 278 281 285 289 291 293 294 295 297 298 299 302 303 303 303 303
242 243 243 242 241 240 239 239 238 236 236 235 235 234 234 234 234 232 230 230 232 231 228 227 227 228 230 232 234 235 236 239 241 243 244 245 245 244 244 244 244 246 248 249 250 249 247 250 253 257 260 263 266 270 272 275 276 275 274 274 272 271 270 270 271 271 272 274 277 280 284 287 288 290 292 293 294 296 298 300 302 302 301 301 303
242 241 242 242 242 241 240 239 239 238 237 236 235 235 234 234 234 234 233 231 231 233 234 232 230 230 232 233 233 233 235 237 239 242 242 243 245 244 244 243 243 244 246 248 250 250 248 249 252 255 258 260 265 269 272 276 277 276 275 274 273 272 272 271 270 271 273 276 280 283 285 285 286 288 290 291 293 296 298 300 300 299 299 301 303
244 242 241 241 241 241 241 240 239 238 238 238 237 236 235 235 234 234 234 233 231 232 235 236 235 235 235 237 236 235 236 237 238 241 242 242 243 244 244 244 242 242 244 246 249 250 250 250 252 255 257 259 262 266 271 275 276 277 276 275 274 274 274 272 271 273 276 279 281 282 283 283 285 287 289 290 292 295 298 298 298 298 299 301 303
245 244 243 241 240 240 240 240 240 239 238 238 238 237 237 236 235 234 234 235 234 233 233 235 237 237 237 238 238 237 237 237 238 240 242 242 242 242 243 244 244 242 242 244 247 249 250 252 253 254 256 259 261 264 267 272 275 276 275 276 276 275 274 273 274 276 278 279 280 281 282 283 286 287 289 290 293 295 296 297 297 299 301 302 304
245 245 244 243 241 240 239 239 240 240 239 238 238 238 238 237 237 236 235 235 235 234 234 234 236 237 238 239 239 239 239 238 238 239 241 242 242 242 242 244 244 244 244 244 246 247 250 252 253 254 256 259 261 262 264 268 272 273 274 275 275 274 274 275 275 275 277 279 280 281 283 285 286 288 290 292 294 295 296 297 299 300 301 302 304
245 245 244 244 243 242 240 239 239 239 239 239 238 238 238 238 238 237 236 235 235 235 234 234 235 236 237 238 239 239 239 239 238 238 240 241 242 243 243 244 245 246 246 246 246 248 250 252 254 255 257 259 260 262 264 266 268 270 272 273 274 274 274 275 275 275 276 279 281 282 284 285 286 289 292 294 294 294 296 298 300 300 301 303 305
247 246 245 244 243 243 242 241 240 239 239 239 239 238 238 238 238 238 238 237 236 235 234 234 235 235 235 236 237 238 239 239 238 238 238 240 241 243 244 245 245 246 248 248 248 248 250 252 254 256 258 259 261 262 263 264 266 269 271 272 273 274 273 274 274 274 275 279 281 282 283 284 287 290 292 294 294 295 297 299 300 300 301 303 305
248 247 246 245 245 244 243 242 241 241 240 239 238 238 238 238 238 238 238 238 237 236 235 234 234 234 234 235 235 237 238 238 238 238 238 239 240 241 243 245 245 246 248 249 249 250 250 251 254 256 258 259 261 261 262 264 265 268 269 270 271 272 272 273 273 273 275 279 280 280 281 284 288 290 291 293 294 296 298 299 299 299 301 304 306
250 248 247 246 246 245 244 243 243 242 241 240 239 238 238 238 238 238 238 238 238 237 236 235 235 234 234 234 234 235 236 237 237 237 237 238 239 239 242 243 243 244 246 247 249 249 249 251 254 255 257 259 260 260 261 263 265 266 268 268 269 269 270 272 275 275 275 276 277 279 282 285 287 288 291 293 295 296 298 299 298 300 303 305 307
251 250 249 248 247 246 245 245 244 243 242 242 241 239 238 238 238 238 238 238 238 237 237 236 235 235 234 234 233 234 235 236 236 236 237 237 238 238 240 242 243 243 244 245 247 248 249 251 253 255 256 258 259 260 260 262 263 264 266 266 268 269 270 273 276 275 273 274 277 279 282 284 286 288 291 294 295 297 297 296 297 301 304 306 307
252 252 251 250 249 247 246 245 245 244 243 243 242 241 240 239 237 237 237 237 237 237 237 236 236 235 235 234 234 233 233 234 235 236 236 237 238 238 239 241 243 243 243 244 246 247 248 249 252 254 255 257 258 259 259 260 261 262 264 267 269 270 271 273 274 274 273 274 277 279 282 283 285 287 291 294 295 296 295 295 297 301 303 305 306
252 252 252 251 250 249 248 247 246 245 244 243 243 242 242 241 239 238 237 237 237 237 237 237 236 235 235 235 234 234 233 233 234 234 235 236 237 237 238 239 241 242 243 244 245 246 247 248 250 252 254 255 256 257 258 259 260 262 265 267 269 269 269 270 272 273 274 275 276 278 281 282 284 287 291 294 294 294 293 295 298 301 302 303 305
253 253 252 252 251 250 250 249 247 246 245 244 243 243 242 241 241 240 239 238 237 237 237 237 237 236 235 235 235 234 234 233 233 233 234 235 236 237 237 238 240 241 242 243 244 245 246 247 248 250 251 253 254 255 256 258 260 263 264 265 266 267 268 269 271 273 274 275 276 278 279 281 284 287 290 292 292 292 293 296 299 300 301 302 303
255 254 253 252 252 251 250 249 248 247 245 244 243 243 242 241 240 240 240 239 238 237 237 237 237 237 236 235 235 235 234 234 233 233 234 234 235 236 237 238 238 239 241 242 244 245 245 246 247 248 249 251 252 253 256 258 260 261 262 263 265 266 267 269 271 273 274 275 277 277 277 281 285 287 289 291 291 292 294 297 298 299 300 301 302
256 255 254 253 252 251 250 249 248 247 245 244 243 242 242 241 240 239 239 239 239 238 238 237 237 237 237 236 235 235 235 234 233 233 233 233 234 235 236 237 238 238 240 242 243 244 244 245 246 246 247 249 250 252 255 258 259 260 261 263 264 266 268 271 272 273 274 275 276 275 277 281 284 286 288 289 290 293 295 297 298 298 299 300 301
256 255 254 252 251 251 250 249 248 247 245 244 243 242 241 241 240 239 238 238 239 239 238 238 237 237 237 236 236 235 235 234 234 233 233 233 233 234 235 236 237 237 238 240 241 242 242 242 244 245 246 248 249 251 254 257 258 259 260 262 263 266 270 271 272 273 274 275 275 275 277 281 283 284 286 288 291 294 295 296 297 297 298 299 300
255 254 253 252 251 250 249 248 247 246 245 244 243 241 241 240 240 239 238 238 238 238 238 238 238 238 237 237 236 235 234 234 234 233 233 233 233 233 234 235 236 237 237 238 239 240 241 241 243 244 245 247 249 251 253 256 257 258 259 260 263 266 269 271 272 273 274 275 274 275 278 280 282 284 286 288 291 293 294 296 297 296 297 298 298
255 254 253 252 251 250 249 248 247 246 245 244 243 241 240 239 239 238 237 237 238 238 238 238 238 238 237 237 236 236 235 234 234 234 233 232 232 233 233 234 235 236 237 238 239 240 241 241 242 244 245 247 248 250 252 254 255 256 258 260 263 266 267 269 271 273 274 274 274 275 278 280 281 283 285 288 291 293 294 295 296 296 297 297 297
254 253 252 251 250 248 247 246 245 244 244 243 243 241 239 238 238 237 237 236 237 237 238 238 238 238 237 237 236 236 235 234 233 233 233 232 231 232 233 234 234 235 236 238 239 240 241 241 241 243 244 246 247 249 250 251 253 255 257 260 263 265 266 268 270 272 272 272 273 275 278 280 281 283 285 288 291 292 293 294 296 296 296 296 297
253 252 251 249 248 247 245 244 243 242 242 242 242 241 239 238 237 237 236 236 236 237 237 237 237 237 237 237 236 236 235 234 233 233 232 232 231 231 232 233 234 234 235 237 238 239 240 240 240 242 243 245 246 248 248 250 252 255 258 260 262 264 266 267 269 270 272 273 274 277 279 280 281 283 286 288 291 292 292 294 296 296 296 296 296
253 251 249 247 246 245 243 243 242 242 242 242 241 240 239 238 237 237 236 235 235 236 236 237 237 236 236 236 236 235 235 234 233 232 232 232 231 231 231 232 233 233 234 236 237 238 239 239 239 240 241 242 244 245 246 247 250 254 257 259 262 264 266 267 268 270 271 273 275 278 280 280 281 284 287 289 290 291 292 293 295 295 295 295 296
253 250 247 245 245 244 243 243 243 242 242 242 241 240 239 238 237 237 236 235 235 235 236 236 236 236 236 236 235 235 234 233 232 232 231 231 231 230 230 230 231 233 234 235 236 237 237 237 237 238 238 239 241 242 243 245 248 251 254 257 260 263 266 267 268 269 271 273 275 278 279 280 282 285 287 288 289 289 291 293 294 294 294 294 296
Height
10765 10765 10765 10766 10766 10767 10767 10768 10768 10769 10770 10771 10773 10774 10775 10777 10778 10780 10782 10784 10787 10790 10794 10797 10800 10802 10805 10807 10808 10811 10813 10815 10817 10819 10821 10823 10825 10827 10828 10829 10831 10832 10833 10834 10835 10836 10836 10837 10838 10838 10839 10840 10840 10840 10839 10838 10838 10837 10836 10835 10834 10832 10832 10832 10832 10831 10830 10829 10827 10826 10824 10822 10821 10820 10819 10817 10814 10812 10810 10807 10805 10803 10801 10799 10796
10764 10764 10764 10764 10764 10764 10764 10765 10766 10767 10768 10769 10770 10771 10773 10774 10776 10778 10780 10782 10784 10787 10790 10793 10797 10799 10802 10804 10806 10808 10811 10813 10815 10816 10818 10820 10822 10824 10826 10827 10828 10830 10831 10832 10833 10833 10834 10835 10835 10836 10837 10837 10838 10838 10837 10837 10836 10835 10834 10833 10832 10831 10830 10830 10830 10829 10828 10826 10825 10824 10822 10821 10820 10819 10817 10815 10813 10811 10808 10805 10803 10801 10799 10797 10794
10762 10763 10763 10763 10762 10762 10762 10763 10764 10765 10766 10767 10767 10769 10770 10772 10773 10775 10777 10779 10781 10784 10787 10789 10793 10796 10799 10801 10803 10805 10808 10811 10812 10814 10816 10817 10819 10821 10822 10824 10826 10827 10828 10829 10830 10831 10831 10832 10833 10834 10835 10835 10835 10836 10835 10835 10835 10834 10832 10832 10831 10830 10829 10829 10829 10828 10826 10824 10823 10822 10820 10819 10819 10818 10816 10814 10811 10809 10807 10804 10802 10799 10797 10795 10793
10758 10759 10760 10761 10760 10760 10760 10761 10763 10763 10764 10765 10765 10767 10768 10769 10771 10772 10774 10776 10779 10781 10784 10786 10789 10793 10795 10798 10800 10802 10805 10808 10810 10811 10813 10815 10816 10818 10819 10821 10822 10824 10826 10827 10828 10828 10829 10830 10831 10832 10832 10832 10833 10833 10833 10833 10832 10831 10830 10830 10829 10829 10828 10828 10827 10826 10824 10822 10821 10820 10819 10818 10817 10816 10814 10812 10810 10808 10805 10803 10801 10798 10796 10793 10791
10754 10756 10756 10757 10758 10758 10759 10759 10761 10762 10762 10763 10764 10765 10766 10767 10769 10770 10772 10774 10777 10779 10781 10783 10786 10789 10792 10795 10798 10800 10802 10805 10807 10809 10811 10813 10814 10815 10816 10817 10819 10820 10822 10824 10825 10825 10826 10827 10828 10829 10830 10830 10830 10831 10831 10831 10830 10829 10828 10828 10827 10827 10826 10826 10826 10825 10823 10820 10818 10818 10817 10816 10816 10814 10812 10810 10808 10806 10804 10802 10799 10796 10794 10792 10790
10752 10753 10754 10755 10755 10756 10757 10758 10759 10759 10760 10761 10762 10763 10764 10765 10766 10768 10770 10772 10774 10776 10778 10780 10783 10786 10789 10792 10794 10796 10798 10801 10804 10807 10809 10810 10811 10812 10813 10814 10815 10817 10819 10820 10822 10823 10824 10825 10826 10826 10827 10828 10828 10828 10828 10828 10828 10827 10827 10826 10825 10825 10824 10824 10824 10823 10821 10819 10817 10816 10815 10814 10813 10812 10810 10808 10806 10804 10802 10800 10797 10795 10792 10790 10788
10749 10751 10751 10752 10752 10754 10755 10757 10757 10757 10758 10759 10760 10761 10762 10763 10764 10766 10767 10769 10772 10774 10775 10778 10780 10783 10786 10788 10790 10792 10795 10798 10801 10804 10806 10808 10809 10810 10811 10812 10812 10814 10816 10817 10818 10820 10821 10822 10823 10824 10824 10825 10825 10826 10826 10826 10825 10825 10824 10824 10824 10823 10823 10822 10822 10821 10820 10818 10816 10814 10813 10812 10811 10810 10808 10806 10804 10802 10800 10798 10795 10793 10790 10788 10786
10746 10747 10747 10748 10749 10750 10752 10754 10755 10755 10756 10757 10757 10758 10759 10760 10762 10764 10765 10766 10769 10771 10773 10775 10777 10780 10783 10785 10787 10789 10792 10795 10798 10801 10803 10805 10806 10807 10808 10809 10810 10811 10813 10815 10816 10817 10818 10819 10820 10821 10821 10822 10823 10823 10824 10824 10823 10822 10822 10822 10822 10821 10821 10820 10819 10818 10818 10816 10814 10813 10811 10810 10809 10808 10806 10804 10802 10800 10798 10795 10793 10790 10788 10786 10783
10742 10743 10744 10744 10745 10747 10749 10750 10751 10753 10754 10754 10755 10756 10757 10758 10759 10761 10762 10764 10765 10767 10770 10772 10774 10777 10780 10782 10784 10787 10790 10792 10795 10798 10800 10802 10803 10804 10805 10807 10808 10809 10811 10812 10814 10815 10815 10816 10817 10818 10818 10819 10820 10821 10821 10821 10821 10820 10820 10820 10819 10819 10818 10818 10817 10816 10815 10814 10812 10811 10809 10808 10807 10805 10803 10802 10799 10797 10795 10793 10790 10788 10786 10783 10781
10738 10739 10739 10740 10742 10743 10744 10746 10748 10750 10752 10753 10753 10753 10754 10756 10757 10758 10760 10761 10762 10764 10767 10769 10771 10774 10776 10779 10781 10783 10786 10789 10792 10795 10797 10798 10799 10801 10802 10804 10805 10807 10808 10810 10811 10812 10813 10813 10814 10815 10815 10816 10817 10818 10819 10819 10818 10818 10818 10817 10817 10816 10816 10815 10814 10813 10812 10811 10810 10808 10807 10805 10804 10802 10801 10799 10797 10795 10793 10791 10788 10786 10783 10781 10778
10733 10734 10736 10737 10738 10739 10740 10742 10745 10747 10748 10750 10750 10751 10752 10753 10754 10755 10757 10759 10760 10762 10763 10766 10768 10771 10773 10775 10777 10780 10782 10785 10788 10790 10792 10794 10796 10797 10799 10800 10802 10804 10806 10807 10809 10810 10811 10811 10811 10812 10812 10813 10814 10815 10816 10816 10816 10816 10816 10815 10814 10813 10813 10813 10812 10811 10810 10808 10807 10806 10804 10803 10801 10800 10798 10796 10794 10793 10790 10788 10786 10783 10781 10778 10776
10728 10730 10732 10733 10733 10734 10737 10739 10741 10742 10744 10746 10747 10748 10749 10750 10752 10753 10754 10756 10757 10759 10760 10762 10765 10767 10769 10771 10774 10776 10778 10781 10783 10786 10788 10790 10792 10794 10795 10797 10799 10801 10802 10804 10806 10807 10808 10809 10809 10809 10809 10809 10810 10812 10813 10813 10813 10813 10813 10812 10812 10810 10811 10811 10810 10808 10807 10805 10804 10803 10801 10800 10798 10797 10795 10793 10792 10790 10788 10786 10784 10781 10778 10776 10773
10723 10725 10727 10729 10729 10730 10733 10735 10736 10737 10740 10742 10743 10745 10747 10748 10749 10750 10751 10753 10754 10756 10758 10759 10761 10763 10765 10767 10770 10772 10774 10776 10779 10781 10784 10785 10787 10790 10793 10794 10795 10797 10799 10801 10802 10804 10805 10806 10806 10806 10805 10806 10807 10808 10810 10810 10810 10811 10810 10810 10809 10808 10808 10809 10807 10805 10804 10802 10801 10800 10798 10797 10795 10793 10792 10791 10789 10787 10785 10783 10781 10778 10776 10773 10770
10718 10720 10722 10724 10725 10727 10729 10732 10733 10733 10736 10738 10741 10743 10745 10745 10746 10747 10748 10750 10751 10752 10754 10756 10758 10760 10761 10764 10766 10768 10770 10771 10774 10776 10778 10780 10782 10786 10789 10791 10792 10793 10795 10797 10799 10800 10801 10802 10802 10802 10802 10803 10804 10806 10807 10808 10808 10808 10807 10807 10806 10805 10806 10806 10804 10802 10801 10799 10798 10797 10795 10794 10792 10790 10789 10788 10786 10784 10782 10780 10778 10776 10773 10770 10767
10713 10714 10717 10719 10721 10723 10725 10728 10730 10730 10732 10735 10737 10740 10741 10741 10742 10744 10745 10747 10748 10749 10751 10752 10754 10756 10758 10760 10761 10763 10765 10767 10769 10770 10772 10775 10779 10782 10785 10787 10788 10790 10792 10793 10794 10796 10797 10798 10798 10798 10799 10800 10801 10803 10804 10804 10804 10804 10804 10803 10803 10802 10803 10802 10801 10799 10797 10796 10795 10794 10792 10790 10788 10787 10786 10784 10783 10781 10779 10777 10775 10773 10770 10767 10765
10707 10709 10711 10714 10716 10718 10720 10723 10725 10727 10729 10731 10733 10735 10736 10738 10739 10741 10742 10744 10745 10746 10747 10749 10751 10753 10755 10756 10757 10759 10760 10762 10763 10765 10768 10771 10774 10778 10781 10783 10784 10786 10788 10789 10790 10791 10793 10794 10794 10795 10795 10796 10797 10798 10799 10800 10801 10801 10801 10800 10799 10799 10799 10798 10797 10795 10794 10793 10792 10791 10789 10787 10785 10784 10783 10781 10780 10778 10776 10774 10772 10770 10767 10764 10762
10701 10702 10705 10707 10710 10712 10714 10717 10720 10723 10725 10727 10728 10729 10731 10732 10734 10736 10738 10740 10741 10742 10743 10745 10747 10749 10751 10753 10754 10755 10755 10757 10759 10761 10764 10767 10769 10772 10775 10777 10779 10781 10783 10784 10785 10787 10788 10789 10790 10790 10791 10792 10793 10794 10795 10796 10796 10797 10797 10796 10795 10795 10795 10794 10793 10791 10790 10789 10788 10787 10785 10783 10782 10781 10779 10778 10776 10775 10773 10771 10769 10766 10764 10761 10758
10695 10696 10699 10701 10703 10706 10709 10711 10714 10717 10719 10721 10724 10725 10725 10726 10728 10731 10734 10735 10737 10739 10740 10742 10743 10745 10746 10748 10750 10751 10751 10753 10754 10756 10759 10761 10764 10766 10768 10771 10773 10776 10778 10779 10781 10783 10784 10785 10785 10786 10787 10788 10788 10789 10790 10791 10792 10792 10792 10792 10791 10792 10791 10790 10789 10788 10787 10786 10784 10783 10782 10780 10778 10777 10776 10774 10773 10771 10769 10768 10766 10763 10760 10757 10754
10689 10691 10693 10695 10697 10700 10703 10706 10708 10711 10713 10715 10718 10720 10721 10721 10723 10726 10729 10730 10732 10735 10737 10738 10740 10741 10741 10743 10746 10747 10748 10750 10751 10752 10755 10757 10759 10761 10763 10765 10768 10770 10772 10773 10775 10777 10779 10780 10781 10782 10783 10784 10784 10785 10786 10787 10787 10788 10788 10787 10787 10787 10787 10786 10785 10784 10783 10782 10780 10779 10778 10776 10775 10774 10773 10771 10769 10767 10766 10764 10762 10760 10757 10754 10751
10683 10685 10687 10689 10692 10694 10696 10699 10702 10705 10707 10709 10711 10713 10715 10717 10719 10721 10724 10725 10727 10730 10732 10734 10736 10736 10737 10739 10741 10742 10745 10747 10747 10749 10751 10752 10755 10757 10758 10760 10763 10765 10766 10768 10770 10772 10774 10775 10777 10778 10779 10780 10780 10781 10782 10782 10783 10783 10783 10783 10784 10783 10783 10782 10781 10780 10779 10778 10777 10776 10774 10773 10772 10771 10769 10767 10765 10764 10762 10760 10759 10756 10754 10751 10748
10677 10679 10681 10683 10686 10688 10690 10692 10695 10698 10701 10703 10705 10707 10709 10711 10713 10715 10718 10720 10722 10725 10727 10730 10732 10731 10733 10735 10736 10738 10741 10743 10744 10746 10748 10749 10751 10753 10754 10756 10758 10760 10762 10763 10765 10766 10768 10770 10772 10773 10774 10775 10776 10777 10777 10778 10778 10778 10778 10779 10779 10779 10778 10778 10777 10776 10776 10775 10774 10772 10770 10769 10769 10767 10765 10763 10762 10760 10758 10756 10755 10753 10750 10747 10745
10671 10673 10675 10677 10679 10682 10684 10686 10689 10692 10695 10697 10699 10702 10704 10705 10707 10709 10712 10714 10717 10719 10721 10724 10726 10727 10729 10731 10732 10734 10736 10738 10740 10742 10744 10746 10748 10750 10751 10753 10754 10756 10758 10759 10760 10761 10762 10764 10766 10768 10769 10771 10772 10772 10773 10774 10774 10774 10774 10775 10775 10774 10774 10774 10773 10772 10771 10771 10770 10768 10766 10765 10764 10763 10761 10759 10757 10755 10754 10752 10751 10749 10746 10744 10741
10663 10666 10669 10671 10673 10675 10677 10680 10682 10685 10688 10691 10693 10696 10698 10699 10702 10704 10707 10709 10710 10712 10715 10718 10720 10722 10725 10726 10727 10729 10731 10734 10736 10737 10739 10742 10743 10746 10748 10749 10751 10752 10753 10754 10756 10756 10757 10759 10760 10762 10764 10766 10767 10768 10768 10769 10769 10770 10770 10770 10770 10770 10770 10770 10769 10768 10767 10766 10765 10764 10762 10761 10760 10758 10756 10755 10753 10751 10750 10748 10747 10745 10742 10740 10737
10655 10658 10661 10664 10666 10668 10670 10673 10675 10678 10681 10684 10686 10689 10691 10694 10697 10699 10701 10704 10705 10707 10709 10712 10714 10717 10719 10720 10721 10724 10726 10728 10731 10733 10735 10737 10738 10741 10744 10746 10748 10749 10749 10750 10751 10751 10752 10754 10756 10757 10759 10760 10761 10762 10763 10764 10764 10765 10765 10766 10766 10766 10766 10766 10765 10764 10763 10762 10761 10760 10759 10757 10755 10753 10752 10750 10749 10747 10746 10744 10743 10741 10739 10736 10734
10647 10650 10653 10656 10658 10660 10662 10665 10667 10670 10673 10676 10679 10682 10685 10688 10691 10693 10695 10698 10700 10702 10703 10705 10707 10709 10712 10714 10716 10718 10720 10722 10726 10729 10730 10732 10734 10736 10738 10741 10743 10745 10745 10745 10746 10747 10748 10750 10751 10752 10754 10755 10756 10757 10758 10759 10759 10760 10760 10761 10761 10762 10762 10761 10761 10760 10759 10758 10757 10756 10755 10753 10751 10749 10748 10746 10745 10743 10742 10740 10739 10737 10735 10732 10730
10638 10641 10644 10647 10649 10652 10654 10657 10659 10662 10665 10668 10671 10674 10678 10681 10684 10687 10689 10691 10694 10697 10698 10698 10700 10702 10705 10709 10711 10712 10714 10716 10720 10724 10725 10727 10729 10731 10733 10736 10738 10740 10741 10741 10742 10743 10744 10745 10747 10748 10749 10750 10751 10752 10753 10753 10754 10754 10755 10755 10756 10757 10757 10756 10756 10755 10755 10754 10753 10752 10750 10748 10746 10744 10743 10742 10740 10738 10737 10736 10735 10733 10730 10728 10726
10628 10632 10634 10637 10640 10642 10645 10648 10650 10653 10656 10659 10662 10666 10670 10674 10677 10679 10681 10684 10688 10691 10691 10692 10694 10696 10699 10702 10705 10707 10709 10709 10713 10717 10719 10721 10724 10726 10728 10731 10733 10735 10736 10737 10738 10739 10740 10741 10743 10744 10745 10746 10747 10747 10748 10749 10749 10749 10750 10750 10751 10751 10751 10751 10750 10750 10750 10750 10749 10747 10745 10744 10742 10740 10739 10738 10735 10734 10733 10732 10730 10728 10726 10724 10721
10618 10621 10624 10627 10629 10632 10635 10638 10640 10643 10646 10650 10653 10657 10660 10665 10669 10671 10673 10676 10679 10682 10684 10686 10687 10689 10692 10696 10698 10702 10703 10702 10705 10710 10712 10715 10718 10720 10723 10726 10728 10729 10731 10733 10734 10735 10736 10738 10739 10740 10741 10742 10743 10743 10744 10744 10745 10745 10745 10745 10745 10745 10745 10745 10745 10745 10745 10745 10744 10742 10741 10739 10738 10736 10735 10733 10731 10730 10729 10727 10726 10724 10721 10719 10717
10608 10610 10613 10616 10619 10622 10624 10627 10630 10633 10636 10639 10643 10647 10650 10654 10659 10663 10665 10667 10670 10673 10676 10678 10679 10682 10686 10689 10692 10695 10696 10695 10698 10702 10705 10709 10713 10715 10718 10721 10723 10725 10726 10728 10729 10730 10733 10734 10735 10736 10738 10738 10739 10739 10739 10740 10740 10741 10740 10740 10740 10740 10740 10739 10740 10740 10740 10740 10738 10737 10736 10735 10733 10732 10730 10729 10727 10726 10725 10723 10721 10719 10717 10714 10712
10598 10600 10602 10605 10608 10611 10614 10616 10619 10623 10626 10629 10632 10636 10640 10644 10648 10652 10656 10658 10661 10663 10666 10669 10670 10673 10678 10681 10685 10688 10689 10690 10692 10694 10698 10703 10707 10710 10712 10714 10717 10719 10721 10723 10724 10726 10728 10730 10730 10733 10734 10734 10735 10735 10735 10736 10736 10736 10736 10736 10735 10735 10735 10735 10736 10736 10735 10734 10733 10733 10732 10731 10729 10728 10726 10725 10724 10722 10720 10718 10717 10714 10712 10710 10707
10588 10590 10592 10594 10596 10599 10603 10605 10608 10612 10615 10618 10622 10625 10630 10634 10638 10642 10645 10649 10652 10654 10656 10659 10662 10665 10669 10672 10677 10681 10682 10683 10685 10687 10691 10696 10700 10704 10706 10707 10711 10714 10716 10718 10719 10721 10724 10724 10726 10728 10729 10730 10731 10731 10731 10732 10732 10732 10732 10732 10731 10731 10731 10731 10731 10731 10730 10729 10729 10728 10728 10726 10725 10724 10723 10721 10720 10718 10716 10714 10712 10710 10707 10705 10703
10577 10579 10582 10583 10585 10588 10591 10594 10597 10600 10604 10607 10611 10615 10619 10624 10627 10631 10634 10638 10643 10646 10648 10650 10653 10656 10661 10664 10668 10672 10674 10677 10680 10681 10685 10690 10694 10697 10698 10700 10705 10708 10710 10712 10714 10716 10718 10719 10721 10723 10724 10726 10727 10727 10727 10728 10728 10728 10728 10728 10728 10728 10727 10727 10726 10726 10726 10725 10725 10724 10723 10722 10721 10720 10719 10717 10715 10714 10712 10710 10707 10705 10703 10701 10698
10565 10567 10570 10571 10574 10577 10579 10582 10585 10589 10592 10596 10600 10604 10609 10613 10616 10620 10624 10627 10633 10637 10639 10642 10644 10648 10652 10655 10658 10663 10665 10669 10674 10675 10677 10682 10687 10689 10690 10694 10699 10701 10704 10706 10708 10710 10712 10713 10716 10717 10718 10722 10723 10723 10723 10724 10725 10725 10724 10724 10725 10724 10723 10722 10722 10722 10722 10721 10720 10720 10719 10718 10717 10716 10714 10713 10711 10709 10707 10705 10703 10701 10699 10696 10694
10553 10555 10557 10560 10563 10565 10568 10571 10573 10577 10581 10585 10589 10594 10598 10602 10605 10609 10613 10617 10622 10626 10630 10633 10636 10639 10642 10645 10650 10653 10656 10661 10667 10669 10671 10675 10678 10680 10683 10688 10692 10694 10697 10699 10701 10704 10707 10709 10710 10711 10714 10717 10718 10718 10719 10720 10721 10720 10720 10720 10720 10719 10719 10719 10718 10718 10717 10717 10716 10715 10714 10713 10712 10711 10710 10708 10706 10705 10703 10701 10699 10697 10694 10692 10689
10542 10543 10546 10548 10551 10554 10557 10560 10563 10566 10569 10573 10578 10583 10587 10590 10593 10597 10601 10605 10610 10614 10619 10623 10625 10629 10633 10637 10641 10643 10646 10653 10659 10661 10664 10667 10669 10672 10676 10681 10685 10687 10690 10692 10694 10697 10702 10703 10703 10706 10709 10712 10712 10713 10714 10716 10716 10716 10716 10716 10716 10715 10715 10715 10714 10714 10713 10712 10712 10711 10710 10709 10708 10707 10705 10703 10702 10700 10698 10696 10694 10692 10690 10687 10685
10530 10532 10534 10536 10539 10543 10546 10549 10552 10555 10559 10562 10567 10571 10575 10578 10582 10585 10588 10592 10597 10602 10607 10611 10614 10618 10624 10629 10632 10634 10636 10643 10649 10653 10657 10659 10661 10666 10670 10674 10678 10680 10682 10685 10687 10691 10696 10697 10697 10701 10704 10705 10708 10709 10709 10710 10711 10711 10711 10711 10711 10711 10711 10710 10710 10709 10708 10708 10707 10707 10706 10704 10703 10702 10701 10699 10698 10696 10694 10692 10690 10688 10685 10683 10680
10518 10520 10522 10525 10528 10531 10534 10538 10541 10545 10548 10551 10555 10559 10563 10566 10570 10573 10576 10579 10584 10589 10594 10599 10602 10607 10613 10618 10622 10624 10626 10633 10640 10645 10649 10651 10655 10660 10663 10666 10670 10673 10674 10678 10680 10684 10690 10691 10691 10696 10698 10700 10702 10703 10703 10705 10706 10706 10706 10706 10706 10706 10706 10706 10705 10704 10704 10704 10703 10702 10701 10700 10699 10698 10696 10695 10693 10691 10689 10687 10685 10683 10681 10678 10676
10506 10508 10511 10514 10517 10519 10522 10525 10529 10533 10536 10539 10544 10548 10551 10554 10558 10561 10564 10566 10570 10575 10581 10586 10590 10595 10601 10606 10611 10613 10616 10624 10632 10636 10639 10641 10646 10653 10656 10658 10662 10666 10668 10672 10673 10676 10683 10686 10686 10689 10692 10694 10696 10697 10698 10700 10700 10700 10700 10700 10701 10701 10700 10701 10700 10700 10700 10699 10698 10697 10696 10696 10694 10693 10691 10690 10689 10687 10685 10682 10680 10678 10676 10673 10671
10493 10496 10499 10502 10505 10507 10510 10512 10516 10519 10523 10528 10532 10536 10539 10542 10545 10548 10551 10554 10557 10562 10568 10572 10577 10582 10588 10594 10599 10603 10608 10615 10621 10624 10628 10632 10636 10644 10648 10649 10653 10658 10661 10663 10664 10669 10678 10680 10679 10682 10686 10688 10689 10691 10692 10694 10694 10694 10694 10694 10695 10695 10695 10696 10696 10695 10694 10693 10693 10692 10692 10691 10689 10688 10687 10686 10684 10682 10680 10677 10675 10673 10671 10668 10666
10480 10483 10485 10488 10492 10494 10497 10499 10502 10506 10511 10515 10519 10522 10525 10528 10532 10535 10538 10541 10545 10550 10555 10559 10564 10570 10576 10582 10587 10592 10598 10605 10609 10613 10618 10622 10626 10633 10638 10640 10643 10649 10654 10656 10657 10664 10671 10672 10672 10676 10680 10681 10682 10684 10686 10687 10687 10687 10687 10688 10690 10691 10691 10691 10691 10690 10689 10688 10688 10688 10687 10686 10685 10684 10683 10681 10679 10677 10674 10671 10670 10668 10666 10663 10661
10467 10469 10471 10474 10477 10480 10482 10485 10489 10493 10498 10502 10504 10507 10509 10512 10517 10521 10525 10529 10533 10538 10543 10547 10552 10559 10564 10570 10575 10581 10587 10594 10597 10602 10608 10612 10615 10622 10628 10631 10634 10640 10646 10649 10650 10655 10662 10665 10667 10670 10673 10674 10675 10677 10678 10679 10679 10680 10682 10684 10685 10685 10685 10685 10685 10684 10684 10684 10684 10683 10683 10681 10680 10679 10678 10676 10674 10672 10669 10666 10665 10664 10661 10659 10656
10454 10455 10458 10460 10462 10464 10467 10471 10474 10478 10483 10487 10488 10490 10493 10497 10502 10506 10511 10515 10520 10525 10531 10535 10540 10547 10553 10558 10564 10569 10575 10581 10586 10591 10597 10601 10606 10612 10617 10621 10625 10631 10638 10641 10642 10647 10654 10658 10660 10663 10666 10667 10668 10669 10670 10671 10673 10676 10677 10678 10678 10678 10679 10680 10679 10679 10679 10679 10680 10679 10678 10676 10675 10675 10674 10671 10668 10666 10664 10661 10660 10658 10656 10654 10651
10439 10441 10443 10445 10447 10449 10452 10455 10458 10462 10467 10470 10471 10472 10476 10481 10487 10492 10496 10500 10506 10512 10518 10523 10528 10534 10540 10546 10552 10557 10562 10569 10575 10581 10586 10592 10596 10601 10606 10611 10617 10623 10629 10633 10635 10641 10647 10650 10652 10655 10658 10660 10661 10662 10663 10665 10668 10670 10670 10671 10672 10671 10672 10674 10674 10674 10675 10675 10675 10675 10672 10671 10671 10670 10668 10666 10662 10659 10658 10656 10655 10653 10651 10648 10645
10423 10425 10427 10429 10431 10433 10435 10438 10441 10445 10450 10453 10454 10456 10459 10464 10470 10476 10481 10485 10491 10498 10505 10510 10515 10520 10526 10533 10539 10545 10551 10558 10564 10569 10575 10581 10586 10591 10595 10600 10607 10614 10621 10624 10628 10633 10638 10641 10643 10647 10651 10652 10653 10655 10656 10659 10661 10662 10664 10665 10664 10665 10667 10669 10669 10669 10669 10670 10670 10668 10666 10664 10665 10665 10662 10659 10656 10654 10652 10651 10649 10648 10645 10642 10639
10406 10408 10410 10412 10415 10416 10419 10422 10425 10429 10433 10436 10437 10439 10443 10448 10453 10460 10466 10472 10477 10483 10490 10496 10502 10507 10513 10520 10526 10533 10541 10547 10552 10557 10564 10570 10576 10581 10585 10589 10595 10604 10611 10615 10617 10622 10628 10632 10635 10639 10643 10645 10647 10649 10650 10653 10655 10655 10658 10658 10657 10660 10663 10663 10662 10662 10664 10666 10664 10662 10660 10658 10659 10660 10656 10652 10651 10649 10646 10645 10644 10642 10639 10636 10633
10391 10392 10394 10396 10399 10401 10403 10407 10410 10414 10418 10420 10421 10423 10427 10432 10437 10444 10452 10458 10463 10469 10476 10482 10488 10493 10500 10507 10514 10521 10529 10535 10539 10546 10553 10559 10565 10570 10573 10578 10585 10594 10600 10604 10606 10611 10617 10624 10628 10632 10635 10637 10640 10642 10643 10648 10649 10648 10650 10651 10651 10655 10657 10656 10655 10656 10658 10660 10658 10656 10655 10652 10652 10653 10649 10646 10646 10643 10640 10639 10638 10635 10632 10629 10626
10376 10378 10379 10382 10384 10387 10389 10393 10397 10400 10402 10403 10404 10407 10412 10417 10422 10429 10438 10445 10450 10457 10463 10469 10474 10479 10485 10493 10500 10508 10517 10523 10528 10535 10542 10548 10554 10559 10562 10568 10577 10584 10589 10594 10598 10602 10609 10618 10623 10625 10628 10630 10633 10635 10638 10642 10641 10639 10643 10646 10646 10648 10650 10649 10649 10651 10653 10653 10651 10650 10650 10647 10645 10646 10643 10640 10640 10637 10634 10633 10631 10628 10625 10623 10619
10363 10364 10366 10368 10370 10373 10376 10380 10384 10386 10387 10387 10388 10392 10398 10403 10408 10416 10425 10432 10438 10444 10450 10455 10460 10464 10471 10479 10486 10495 10504 10511 10517 10524 10530 10536 10542 10548 10552 10558 10567 10574 10579 10585 10591 10595 10602 10610 10615 10617 10620 10622 10625 10628 10631 10632 10631 10633 10639 10641 10639 10641 10643 10642 10642 10644 10645 10645 10644 10644 10645 10641 10638 10639 10637 10634 10633 10631 10627 10626 10624 10621 10618 10616 10613
10351 10353 10354 10356 10358 10361 10364 10367 10370 10372 10373 10373 10376 10380 10385 10391 10397 10405 10414 10422 10428 10433 10437 10441 10445 10450 10458 10465 10473 10482 10490 10498 10505 10511 10517 10523 10531 10537 10543 10550 10559 10566 10570 10576 10582 10587 10594 10602 10607 10609 10611 10614 10617 10621 10624 10625 10624 10628 10633 10633 10631 10633 10635 10635 10636 10637 10637 10637 10636 10637 10638 10635 10631 10631 10630 10628 10626 10624 10621 10619 10617 10614 10612 10609 10607
10340 10341 10343 10345 10347 10350 10353 10355 10359 10361 10361 10362 10366 10369 10375 10382 10389 10397 10405 10412 10417 10422 10424 10427 10431 10438 10445 10452 10460 10469 10477 10484 10492 10498 10504 10511 10519 10527 10536 10544 10551 10557 10561 10567 10573 10580 10588 10595 10599 10600 10603 10608 10611 10614 10616 10618 10619 10623 10626 10625 10624 10624 10627 10629 10630 10629 10629 10629 10629 10629 10630 10627 10624 10624 10623 10621 10619 10617 10615 10613 10610 10607 10605 10602 10600
10330 10330 10333 10335 10337 10340 10344 10346 10349 10352 10352 10353 10357 10362 10368 10376 10383 10389 10396 10402 10407 10410 10412 10415 10420 10427 10434 10441 10448 10456 10463 10471 10479 10486 10492 10501 10510 10519 10527 10535 10542 10548 10553 10559 10565 10572 10579 10586 10589 10592 10596 10601 10604 10605 10607 10611 10614 10616 10618 10617 10616 10618 10620 10621 10622 10623 10623 10622 10621 10622 10622 10619 10617 10617 10616 10614 10612 10610 10608 10607 10603 10600 10598 10596 10593